Location: Dammartin
(48.9032°N, 1.6195°E)
Time: 23:37:35
(UTC+00:00)

YUBILEINY - Visible Passes

Search period start: 06 December 2023 00:00
Search period end: 16 December 2023 00:00
Orbit: 1478 x 1508 km, 82.5° (Epoch: 06 December)

Date Brightness Start Highest point End Pass type
(mag) Time Alt. Az. Time Alt. Az. Time Alt. Az.
06 Dec ? 06:48:10 10° E 06:51:07 12° ENE 06:54:05 10° NE visible
06 Dec ? 18:42:23 10° N 18:47:46 30° NE 18:47:46 30° NE visible
06 Dec ? 20:39:03 10° NNW 20:43:42 35° NNW 20:43:42 35° NNW visible
06 Dec ? 22:38:30 10° NW 22:39:37 12° NW 22:39:37 12° NW visible
07 Dec ? 17:53:17 10° N 17:58:54 21° NE 17:58:54 21° NE visible
07 Dec ? 19:49:18 10° N 19:54:50 44° N 19:54:50 44° N visible
07 Dec ? 21:47:10 10° NNW 21:50:46 21° NW 21:50:46 21° NW visible
08 Dec ? 17:04:57 10° NNE 17:08:41 13° NE 17:10:07 13° NE visible
08 Dec ? 18:59:45 10° N 19:06:03 42° NNE 19:06:03 42° NNE visible
08 Dec ? 20:56:51 10° NNW 21:01:59 34° NW 21:01:59 34° NW visible
09 Dec ? 18:10:26 10° N 18:17:20 30° NE 18:17:20 30° NE visible
09 Dec ? 20:06:55 10° NNW 20:13:16 53° NNW 20:13:16 53° NNW visible
09 Dec ? 22:05:44 10° NW 22:09:13 16° WNW 22:09:13 16° WNW visible
10 Dec ? 17:21:29 10° N 17:27:15 19° NE 17:28:44 18° ENE visible
10 Dec ? 19:17:14 10° N 19:24:41 62° NNE 19:24:41 62° NNE visible
10 Dec ? 21:14:51 10° NNW 21:20:39 29° WNW 21:20:39 29° WNW visible
11 Dec ? 06:31:24 10° ESE 06:36:09 16° ENE 06:40:52 10° NE visible
11 Dec ? 16:33:50 10° NNE 16:36:06 11° NE 16:38:22 10° NE visible
11 Dec ? 18:27:45 10° N 18:35:59 43° ENE 18:36:16 43° ENE visible
11 Dec ? 20:24:40 10° NNW 20:32:15 51° WNW 20:32:15 51° WNW visible
11 Dec ? 22:26:00 10° NW 22:27:34 11° WNW 22:28:13 10° WNW visible
12 Dec ? 17:38:31 10° N 17:45:36 26° ENE 17:48:07 23° E visible
12 Dec ? 19:34:49 10° N 19:43:36 85° W 19:44:07 80° SSW visible
12 Dec ? 21:33:09 10° NNW 21:39:04 21° WNW 21:40:08 20° W visible
13 Dec ? 06:46:28 10° SE 06:53:02 24° ENE 06:59:33 10° NNE visible
13 Dec ? 16:49:45 10° NNE 16:54:47 16° NE 16:59:46 10° E visible
13 Dec ? 18:45:12 10° N 18:53:51 60° ENE 18:56:37 44° SE visible
13 Dec ? 20:42:34 10° NNW 20:50:13 36° W 20:52:43 31° WSW visible
14 Dec ? 06:00:55 10° E 06:04:26 13° ENE 06:07:56 10° NE visible
14 Dec ? 17:55:47 10° N 18:03:44 37° ENE 18:11:36 10° SE visible
14 Dec ? 19:52:30 10° NNW 20:01:01 61° W 20:09:30 10° SSW visible
14 Dec ? 21:52:16 10° NW 21:55:52 13° WNW 21:59:28 10° W visible
15 Dec ? 07:02:23 10° SE 07:10:04 36° E 07:17:43 10° NNE visible
15 Dec ? 17:06:39 10° N 17:13:13 23° NE 17:19:44 10° ESE visible
15 Dec ? 19:02:44 10° N 19:11:31 84° E 19:20:14 10° S visible
15 Dec ? 21:00:43 10° NNW 21:07:16 25° WNW 21:13:48 10° SW visible
